Date String (YYYY-MM-DD hh:mm:ss) UTC,Instrument flags,Ambient pressure (hPa),Sample flow (lpm),Bypass flow (lpm),Sample temperature (°C),Ambient temperature (°C),ASC tube jacket temperature (°C),LED temperature (°C),Box temperature (°C),Sample RH (%),Span deviation,Mass concentration (μg/m³),Mass concentration (μg/m³),Mass concentration (μg/m³)
DateTimeUTC,F1_M11,P_M11,Q1_M11,Q2_M11,T1_M11,T2_M11,T3_M11,T4_M11,T5_M11,U1_M11,ZSPAN_M11,X2_M11,X0_M11,X1_M11
2023-02-03 01:00:00,,0833.0,5.00,0.00,28.0,26.3,00.0,36.8,29.7,09.1,0000.0,0012.47,0024.75,0011.35
2023-02-03 01:01:00,,0833.0,5.02,0.00,28.0,26.3,00.0,36.8,29.7,09.0,0000.0,0012.64,0025.31,0011.49
2023-02-03 01:02:00,,0833.1,4.97,0.00,27.9,26.3,00.0,36.8,29.7,09.0,0000.7,0012.71,0024.32,0011.60
2023-02-03 01:03:00,,0833.0,5.03,0.00,27.9,26.3,00.0,36.8,29.7,09.0,0003.2,0012.83,0023.40,0011.73
2023-02-03 01:04:00,,0833.1,4.98,0.00,27.9,26.3,00.0,36.8,29.7,09.0,0003.0,0012.93,0023.41,0011.84
2023-02-03 01:05:00,,0833.1,5.04,0.00,27.9,26.3,00.0,36.8,29.7,09.0,0002.7,0013.06,0022.17,0011.97
2023-02-03 01:06:00,,0833.1,4.97,0.00,27.9,26.2,00.0,36.8,29.7,09.0,0002.6,0013.21,0021.20,0012.13
2023-02-03 01:07:00,,0833.1,4.98,0.00,27.9,26.2,00.0,36.8,29.6,09.0,0002.2,0013.34,0021.37,0012.26
2023-02-03 01:08:00,,0833.1,5.05,0.00,27.9,26.2,00.0,36.8,29.6,09.0,0002.9,0013.41,0021.87,0012.33
2023-02-03 01:09:00,,0833.1,4.97,0.00,27.9,26.2,00.0,36.8,29.6,09.0,0002.0,0013.34,0021.26,0012.36
2023-02-03 01:10:00,,0833.1,4.99,0.00,27.9,26.2,00.0,36.8,29.6,09.0,0000.6,0013.36,0022.00,0012.39
2023-02-03 01:11:00,,0833.1,5.03,0.00,27.9,26.2,00.0,36.8,29.6,09.0,0001.7,0013.44,0023.37,0012.42
2023-02-03 01:12:00,,0833.2,4.97,0.00,27.9,26.2,00.0,36.8,29.6,09.0,0000.7,0013.40,0022.85,0012.40
2023-02-03 01:13:00,,0833.1,5.03,0.00,27.8,26.2,00.0,36.7,29.6,09.0,0000.0,0013.42,0023.08,0012.38
2023-02-03 01:14:00,,0833.1,4.99,0.00,27.8,26.2,00.0,36.7,29.6,09.0,0000.0,0013.43,0024.57,0012.35
2023-02-03 01:15:00,,0833.2,4.98,0.00,27.8,26.2,00.0,36.7,29.6,09.0,0000.0,0013.38,0025.42,0012.32
2023-02-03 01:16:00,,0833.1,5.05,0.00,27.8,26.1,00.0,36.7,29.6,09.0,0000.0,0013.31,0025.45,0012.27
2023-02-03 01:17:00,,0833.2,4.96,0.00,27.8,26.1,00.0,36.7,29.5,09.0,0000.0,0013.23,0025.33,0012.21
2023-02-03 01:18:00,,0833.2,5.05,0.00,27.8,26.1,00.0,36.7,29.5,09.0,0000.0,0013.13,0025.39,0012.15
2023-02-03 01:19:00,,0833.1,4.98,0.00,27.8,26.1,00.0,36.7,29.6,09.0,0000.0,0013.01,0024.96,0012.08
2023-02-03 01:20:00,,0833.1,4.98,0.00,27.8,26.1,00.0,36.7,29.5,09.0,0000.0,0012.94,0024.58,0012.02
2023-02-03 01:21:00,,0833.0,5.04,0.00,27.8,26.1,00.0,36.7,29.5,08.9,0000.0,0012.87,0023.85,0011.95
2023-02-03 01:22:00,,0833.1,4.98,0.00,27.8,26.1,00.0,36.7,29.5,08.9,0000.0,0012.76,0022.78,0011.88
2023-02-03 01:23:00,,0833.1,4.98,0.00,27.7,26.1,00.0,36.6,29.5,08.9,0002.3,0012.68,0022.96,0011.82
2023-02-03 01:24:00,,0833.1,5.03,0.00,27.7,26.1,00.0,36.6,29.5,08.9,0003.2,0012.63,0023.11,0011.79
2023-02-03 01:25:00,,0833.1,4.98,0.00,27.7,26.1,00.0,36.6,29.5,08.9,0003.1,0012.57,0022.25,0011.78
2023-02-03 01:26:00,,0833.1,4.98,0.00,27.7,26.1,00.0,36.6,29.5,08.9,0003.1,0012.57,0020.82,0011.76
2023-02-03 01:27:00,,0833.2,5.03,0.00,27.7,26.0,00.0,36.6,29.5,08.9,0002.4,0012.63,0020.76,0011.77
2023-02-03 01:28:00,,0833.1,4.98,0.00,27.7,26.0,00.0,36.6,29.5,08.9,0002.3,0012.64,0020.30,0011.77
2023-02-03 01:29:00,,0833.2,4.98,0.00,27.7,26.0,00.0,36.6,29.5,09.0,0002.7,0012.68,0020.07,0011.78
2023-02-03 01:30:00,,0833.2,5.04,0.00,27.7,26.0,00.0,36.6,29.5,09.0,0003.2,0012.72,0020.06,0011.79
2023-02-03 01:31:00,,0833.1,4.97,0.00,27.7,26.0,00.0,36.6,29.4,09.0,0003.5,0012.81,0020.01,0011.81
2023-02-03 01:32:00,,0833.1,4.98,0.00,27.7,26.0,00.0,36.6,29.4,09.0,0003.7,0012.86,0020.33,0011.84
2023-02-03 01:33:00,,0833.1,5.04,0.00,27.7,26.0,00.0,36.5,29.4,08.9,0003.5,0012.79,0019.81,0011.81
2023-02-03 01:34:00,,0833.2,4.97,0.00,27.6,26.0,00.0,36.5,29.4,08.9,0003.7,0012.77,0019.05,0011.77
2023-02-03 01:35:00,,0833.1,5.04,0.00,27.6,25.9,00.0,36.5,29.4,08.9,0004.0,0012.76,0018.83,0011.76
2023-02-03 01:36:00,,0833.2,4.98,0.00,27.6,26.0,00.0,36.5,29.4,09.0,0004.0,0012.71,0018.33,0011.73
2023-02-03 01:37:00,,0833.2,4.97,0.00,27.6,26.0,00.0,36.5,29.4,09.0,0003.5,0012.62,0018.84,0011.69
2023-02-03 01:38:00,,0833.1,5.03,0.00,27.6,25.9,00.0,36.5,29.3,09.0,0003.5,0012.53,0018.67,0011.64
2023-02-03 01:39:00,,0833.1,4.97,0.00,27.6,25.9,00.0,36.5,29.3,08.9,0002.8,0012.47,0018.68,0011.54
2023-02-03 01:40:00,,0833.1,5.06,0.00,27.6,25.9,00.0,36.5,29.3,08.8,0002.8,0012.35,0018.54,0011.41
2023-02-03 01:41:00,,0833.1,4.97,0.00,27.6,25.9,00.0,36.5,29.3,08.9,0003.7,0012.23,0018.33,0011.30
2023-02-03 01:42:00,,0833.1,5.04,0.00,27.6,25.9,00.0,36.4,29.3,08.9,0003.2,0012.10,0018.05,0011.20
2023-02-03 01:43:00,,0833.2,4.98,0.00,27.5,25.9,00.0,36.4,29.3,08.9,0003.1,0012.04,0018.01,0011.12
2023-02-03 01:44:00,,0833.2,5.02,0.00,27.5,25.9,00.0,36.4,29.3,09.0,0003.6,0012.03,0017.98,0011.10
2023-02-03 01:45:00,,0833.1,4.98,0.00,27.5,25.8,00.0,36.4,29.2,09.0,0003.1,0012.03,0018.14,0011.10
2023-02-03 01:46:00,,0833.2,4.97,0.00,27.5,25.8,00.0,36.4,29.2,09.0,0002.7,0011.94,0017.97,0011.02
2023-02-03 01:47:00,,0833.1,5.05,0.00,27.5,25.8,00.0,36.4,29.2,09.0,0002.6,0011.90,0017.75,0010.98
2023-02-03 01:48:00,,0833.1,4.97,0.00,27.5,25.8,00.0,36.4,29.2,09.0,0002.5,0011.91,0017.41,0010.96
2023-02-03 01:49:00,,0833.2,5.05,0.00,27.5,25.8,00.0,36.4,29.2,09.0,0002.7,0011.87,0017.57,0010.92
2023-02-03 01:50:00,,0833.2,4.97,0.00,27.4,25.8,00.0,36.4,29.2,09.0,0003.6,0011.85,0017.54,0010.92
2023-02-03 01:51:00,,0833.2,4.97,0.00,27.4,25.8,00.0,36.3,29.2,09.0,0003.7,0011.89,0017.80,0010.96
2023-02-03 01:52:00,,0833.2,5.03,0.00,27.4,25.7,00.0,36.3,29.2,09.1,0003.5,0011.97,0018.38,0011.02
2023-02-03 01:53:00,,0833.2,4.96,0.00,27.4,25.7,00.0,36.3,29.2,09.1,0002.9,0012.10,0018.56,0011.11
2023-02-03 01:54:00,,0833.2,5.04,0.00,27.4,25.7,00.0,36.3,29.2,09.2,0002.1,0012.14,0018.41,0011.17
2023-02-03 01:55:00,,0833.2,4.96,0.00,27.4,25.7,00.0,36.3,29.2,09.2,0000.2,0012.20,0018.54,0011.22
2023-02-03 01:56:00,,0833.3,5.03,0.00,27.4,25.7,00.0,36.3,29.1,09.1,0000.0,0012.19,0018.37,0011.23
2023-02-03 01:57:00,,0833.3,4.97,0.00,27.4,25.7,00.0,36.3,29.1,09.1,0000.0,0012.18,0018.31,0011.22
2023-02-03 01:58:00,,0833.3,5.03,0.00,27.4,25.7,00.0,36.3,29.1,09.1,0000.0,0012.14,0018.29,0011.19
2023-02-03 01:59:00,,0833.3,4.97,0.00,27.3,25.7,00.0,36.2,29.1,09.1,0000.9,0012.12,0018.11,0011.16
